Weather History for KATW - January, 2014

Change the Weather History Date:

Wednesday, January 8, 2014

  Actual Average Record
Temperature  
Mean Temperature -2 °F -  
Max Temperature 6 °F 20 °F 51 °F (2003)
Min Temperature -9 °F 2 °F -18 °F (1951)
Degree Days  
Heating Degree Days 66    
Moisture  
Dew Point -14 °F    
Average Humidity 67    
Maximum Humidity 77    
Minimum Humidity 52    
Precipitation  
Precipitation 0.00 in - - ()
Sea Level Pressure  
Sea Level Pressure 30.32 in    
Wind  
Wind Speed 6 mph (West)    
Max Wind Speed 12 mph    
Max Gust Speed -    
Visibility 10 miles    
Events      
Averages and records for this station are not official NWS values.
T = Trace of Precipitation, MM = Missing Value Source: NWS Daily Summary

Daily Weather History Graph

Daily Weather History Graph

Search for Another Location

Airport or City:

Trip Planner

Search our weather history database for the weather conditions in past years. The results will help you decide how hot, cold, wet, or windy it might be!

Date:

Astronomy

Jan. 08, 2014 Rise Set
Actual Time 7:29 AM CST 4:32 PM CST
Civil Twilight 6:56 AM CST 5:05 PM CST
Nautical Twilight 6:20 AM CST 5:41 PM CST
Astronomical Twilight 5:45 AM CST 6:16 PM CST
Moon 11:32 AM CST (1/8) 12:26 AM CST (1/8)
Length of Visible Light 10h 09m
Length of Day
9h 03m
First Quarter, 56% of the Moon is Illuminated
Jan 8
First Quarter
Jan 15
Full
Jan 23
Last Quarter
Jan 30
New
Feb 6
First Quarter

Hourly Weather History & Observations

Time (CST) Temp. Windchill Dew Point Humidity Pressure Visibility Wind Dir Wind Speed Gust Speed Precip Events Conditions
12:15 AM -5.8 °F -19.9 °F -14.8 °F 65% 30.22 in 10.0 mi WSW 6.9 mph - N/A   Clear
12:35 AM -5.8 °F -19.9 °F -13.0 °F 71% 30.22 in 10.0 mi WSW 6.9 mph - N/A   Clear
12:55 AM -5.8 °F -18.4 °F -14.8 °F 65% 30.22 in 10.0 mi West 5.8 mph - N/A   Clear
1:15 AM -7.6 °F -18.8 °F -14.8 °F 71% 30.22 in 10.0 mi West 4.6 mph - N/A   Clear
1:35 AM -5.8 °F -18.4 °F -13.0 °F 71% 30.22 in 10.0 mi West 5.8 mph - N/A   Clear
1:55 AM -7.6 °F -16.5 °F -14.8 °F 71% 30.23 in 10.0 mi West 3.5 mph - N/A   Clear
2:15 AM -5.8 °F -14.5 °F -14.8 °F 65% 30.24 in 10.0 mi WSW 3.5 mph - N/A   Clear
2:35 AM -7.6 °F - -14.8 °F 71% 30.24 in 10.0 mi Calm Calm - N/A   Clear
2:55 AM -7.6 °F -16.5 °F -14.8 °F 71% 30.25 in 10.0 mi SW 3.5 mph - N/A   Clear
3:15 AM -7.6 °F -20.6 °F -14.8 °F 71% 30.25 in 10.0 mi WSW 5.8 mph - N/A   Mostly Cloudy
3:35 AM -5.8 °F -16.7 °F -14.8 °F 65% 30.25 in 10.0 mi WSW 4.6 mph - N/A   Overcast
3:55 AM -7.6 °F -16.5 °F -14.8 °F 71% 30.24 in 10.0 mi SSW 3.5 mph - N/A   Overcast
4:15 AM -7.6 °F -16.5 °F -14.8 °F 71% 30.25 in 10.0 mi WSW 3.5 mph - N/A   Scattered Clouds
4:35 AM -7.6 °F -18.8 °F -14.8 °F 71% 30.25 in 10.0 mi WSW 4.6 mph - N/A   Clear
4:55 AM -7.6 °F -20.6 °F -14.8 °F 71% 30.26 in 10.0 mi SW 5.8 mph - N/A   Clear
5:15 AM -7.6 °F -18.8 °F -14.8 °F 71% 30.26 in 10.0 mi SW 4.6 mph - N/A   Clear
5:20 AM -9.4 °F -20.9 °F -16.6 °F 71% 30.26 in 10.0 mi Variable 4.6 mph - N/A   Clear
5:45 AM -9.4 °F -24.3 °F -14.8 °F 77% 30.27 in 10.0 mi SW 6.9 mph - N/A   Clear
6:45 AM -9.4 °F -25.6 °F -16.6 °F 71% 30.29 in 10.0 mi West 8.1 mph - N/A   Scattered Clouds
7:45 AM -9.4 °F -24.3 °F -16.6 °F 71% 30.30 in 10.0 mi West 6.9 mph - N/A   Scattered Clouds
8:45 AM -7.6 °F -22.1 °F -16.6 °F 65% 30.33 in 10.0 mi West 6.9 mph - N/A   Scattered Clouds
9:45 AM -5.8 °F -19.9 °F -13.0 °F 71% 30.35 in 10.0 mi WNW 6.9 mph - N/A   Scattered Clouds
10:45 AM -0.4 °F -14.7 °F -11.2 °F 60% 30.35 in 10.0 mi West 8.1 mph - N/A   Partly Cloudy
11:45 AM 1.4 °F -15.3 °F -11.2 °F 56% 30.34 in 10.0 mi West 11.5 mph - N/A   Clear
12:45 PM 5.0 °F -9.1 °F -9.4 °F 52% 30.33 in 10.0 mi West 9.2 mph - N/A   Clear
1:45 PM 6.8 °F -5.9 °F -7.6 °F 52% 30.33 in 10.0 mi West 8.1 mph - N/A   Partly Cloudy
2:45 PM 6.8 °F -5.9 °F -7.6 °F 52% 30.35 in 10.0 mi West 8.1 mph - N/A   Partly Cloudy
3:45 PM 5.0 °F -10.0 °F -7.6 °F 56% 30.37 in 10.0 mi West 10.4 mph - N/A   Partly Cloudy
4:45 PM 1.4 °F -11.3 °F -9.4 °F 61% 30.39 in 10.0 mi West 6.9 mph - N/A   Scattered Clouds
5:45 PM 1.4 °F -12.5 °F -9.4 °F 61% 30.41 in 10.0 mi West 8.1 mph - N/A   Scattered Clouds
6:45 PM -2.2 °F -18.0 °F -11.2 °F 66% 30.42 in 10.0 mi West 9.2 mph - N/A   Scattered Clouds
7:45 PM -5.8 °F -22.4 °F -14.8 °F 65% 30.44 in 10.0 mi West 9.2 mph - N/A   Scattered Clouds
8:45 PM -5.8 °F -21.2 °F -14.8 °F 65% 30.45 in 10.0 mi West 8.1 mph - N/A   Scattered Clouds
9:45 PM -7.6 °F -23.4 °F -14.8 °F 71% 30.45 in 10.0 mi West 8.1 mph - N/A   Clear
10:45 PM -5.8 °F -21.2 °F -14.8 °F 65% 30.46 in 10.0 mi WNW 8.1 mph - N/A   Clear
11:15 PM -7.6 °F -23.4 °F -14.8 °F 71% 30.45 in 10.0 mi West 8.1 mph - N/A   Clear
11:35 PM -9.4 °F -24.3 °F -16.6 °F 71% 30.45 in 10.0 mi West 6.9 mph - N/A   Clear
11:55 PM -7.6 °F -22.1 °F -14.8 °F 71% 30.45 in 10.0 mi West 6.9 mph - N/A   Clear